,,PA_Meas_PMT16A,,PR_Meas_QMR101_102,,RH_Meas_QMH101,,SR_Meas_QMS101,,TA_Meas_QMH101,,GenWind,,GenWind,
time,status,PA,status,PR,status,RH,status,SR,status,TA,status,DirAvg,status,SpdAvg,
2012-08-08, 00:00:04,VALID,918.256,VALID,0,VALID,95.7806,VALID,0,VALID,20.3479,VALID,8,VALID,0,
2012-08-08, 00:01:04,VALID,918.249,VALID,0,VALID,95.8187,VALID,0,VALID,20.3674,VALID,8,VALID,0,
2012-08-08, 00:02:04,VALID,918.221,VALID,0,VALID,95.8568,VALID,0,VALID,20.3869,VALID,8,VALID,0,
2012-08-08, 00:03:04,VALID,918.209,VALID,0,VALID,95.8797,VALID,0,VALID,20.4064,VALID,8,VALID,0,
2012-08-08, 00:04:04,VALID,918.241,VALID,0,VALID,95.8873,VALID,0,VALID,20.4275,VALID,8,VALID,0,
2012-08-08, 00:05:04,VALID,918.21,VALID,0,VALID,95.8797,VALID,0,VALID,20.4259,VALID,8,VALID,0,
2012-08-08, 00:06:04,VALID,918.186,VALID,0,VALID,95.9178,VALID,0,VALID,20.4259,VALID,8,VALID,0,
2012-08-08, 00:07:04,VALID,918.163,VALID,0,VALID,95.9636,VALID,0,VALID,20.4454,VALID,8,VALID,0,
2012-08-08, 00:08:04,VALID,918.182,VALID,0,VALID,95.9788,VALID,0,VALID,20.4845,VALID,8,VALID,0,
2012-08-08, 00:09:04,VALID,918.164,VALID,0,VALID,95.9178,VALID,0,VALID,20.4845,VALID,8,VALID,0,
2012-08-08, 00:10:04,VALID,918.18,VALID,0,VALID,95.8645,VALID,0,VALID,20.465,VALID,8,VALID,0,
2012-08-08, 00:11:04,VALID,918.161,VALID,0,VALID,95.7882,VALID,0,VALID,20.4454,VALID,8,VALID,0,
2012-08-08, 00:12:04,VALID,918.153,VALID,0,VALID,95.7196,VALID,0,VALID,20.4259,VALID,8,VALID,0,
2012-08-08, 00:13:04,VALID,918.168,VALID,0,VALID,95.712,VALID,0,VALID,20.447,VALID,8,VALID,0,
2012-08-08, 00:14:04,VALID,918.147,VALID,0,VALID,95.712,VALID,0,VALID,20.4259,VALID,8,VALID,0,
2012-08-08, 00:15:04,VALID,918.158,VALID,0,VALID,95.6739,VALID,0,VALID,20.4259,VALID,8,VALID,0,
2012-08-08, 00:16:04,VALID,918.146,VALID,0,VALID,95.651,VALID,0,VALID,20.447,VALID,8,VALID,0,
2012-08-08, 00:17:04,VALID,918.141,VALID,0,VALID,95.6129,VALID,0,VALID,20.4275,VALID,8,VALID,0,
2012-08-08, 00:18:04,VALID,918.123,VALID,0,VALID,95.4604,VALID,0,VALID,20.408,VALID,8,VALID,0,
2012-08-08, 00:19:04,VALID,918.137,VALID,0,VALID,95.2088,VALID,0,VALID,20.3495,VALID,8,VALID,0,
2012-08-08, 00:20:04,VALID,918.097,VALID,0,VALID,95.2088,VALID,0,VALID,20.2699,VALID,8,VALID,0,
2012-08-08, 00:21:04,VALID,918.121,VALID,0,VALID,95.2698,VALID,0,VALID,20.2699,VALID,8,VALID,0,
2012-08-08, 00:22:04,VALID,918.113,VALID,0,VALID,95.3079,VALID,0,VALID,20.2909,VALID,8,VALID,0,
2012-08-08, 00:23:04,VALID,918.102,VALID,0,VALID,95.4071,VALID,0,VALID,20.2894,VALID,8,VALID,0,
2012-08-08, 00:24:04,VALID,918.09,VALID,0,VALID,95.4528,VALID,0,VALID,20.3089,VALID,8,VALID,0,
2012-08-08, 00:25:04,VALID,918.119,VALID,0,VALID,95.5062,VALID,0,VALID,20.3105,VALID,8,VALID,0,
2012-08-08, 00:26:04,VALID,918.097,VALID,0,VALID,95.59,VALID,0.107441,VALID,20.3479,VALID,8,VALID,0,
2012-08-08, 00:27:04,VALID,918.046,VALID,0,VALID,95.6815,VALID,0,VALID,20.3674,VALID,8,VALID,0,
2012-08-08, 00:28:04,VALID,918.018,VALID,0,VALID,95.7349,VALID,0.107441,VALID,20.4064,VALID,8,VALID,0,
2012-08-08, 00:29:04,VALID,918.009,VALID,0,VALID,95.7882,VALID,0,VALID,20.4259,VALID,8,VALID,0,
2012-08-08, 00:30:04,VALID,918.001,VALID,0,VALID,95.8035,VALID,0,VALID,20.4244,VALID,8,VALID,0,
2012-08-08, 00:31:04,VALID,917.954,VALID,0,VALID,95.7654,VALID,0.107441,VALID,20.4454,VALID,8,VALID,0,
2012-08-08, 00:32:04,VALID,917.944,VALID,0,VALID,95.7958,VALID,0,VALID,20.4845,VALID,8,VALID,0,
2012-08-08, 00:33:04,VALID,917.949,VALID,0,VALID,95.8416,VALID,0,VALID,20.543,VALID,8,VALID,0,
2012-08-08, 00:34:04,VALID,917.943,VALID,0,VALID,95.8568,VALID,0,VALID,20.5625,VALID,8,VALID,0,
2012-08-08, 00:35:04,VALID,917.88,VALID,0,VALID,95.8568,VALID,0.107441,VALID,20.6015,VALID,8,VALID,0,
2012-08-08, 00:36:04,VALID,917.89,VALID,0,VALID,95.8416,VALID,0.107441,VALID,20.621,VALID,8,VALID,0,
2012-08-08, 00:37:04,VALID,917.882,VALID,0,VALID,95.834,VALID,0,VALID,20.66,VALID,8,VALID,0,
2012-08-08, 00:38:04,VALID,917.875,VALID,0,VALID,95.7882,VALID,0,VALID,20.6585,VALID,8,VALID,0,
2012-08-08, 00:39:04,VALID,917.87,VALID,0,VALID,95.7425,VALID,0.107441,VALID,20.699,VALID,8,VALID,0,
2012-08-08, 00:40:04,VALID,917.864,VALID,0,VALID,95.5595,VALID,0.107441,VALID,20.6585,VALID,8,VALID,0,
2012-08-08, 00:41:04,VALID,917.85,VALID,0,VALID,95.468,VALID,0,VALID,20.6405,VALID,8,VALID,0,
2012-08-08, 00:42:04,VALID,917.848,VALID,0,VALID,95.4604,VALID,0,VALID,20.66,VALID,8,VALID,0,
2012-08-08, 00:43:04,VALID,917.881,VALID,0,VALID,95.4299,VALID,0,VALID,20.6811,VALID,8,VALID,0,
2012-08-08, 00:44:04,VALID,917.875,VALID,0,VALID,95.3689,VALID,0,VALID,20.7006,VALID,8,VALID,0,
2012-08-08, 00:45:04,VALID,917.893,VALID,0,VALID,95.3156,VALID,0,VALID,20.6811,VALID,8,VALID,0,
2012-08-08, 00:46:04,VALID,917.901,VALID,0,VALID,95.2775,VALID,0,VALID,20.7006,VALID,8,VALID,0,
2012-08-08, 00:47:04,VALID,917.902,VALID,0,VALID,95.3079,VALID,0,VALID,20.7006,VALID,8,VALID,0,
2012-08-08, 00:48:04,VALID,917.917,VALID,0,VALID,95.3232,VALID,0,VALID,20.7185,VALID,8,VALID,0,
2012-08-08, 00:49:04,VALID,917.91,VALID,0,VALID,95.3308,VALID,0,VALID,20.7591,VALID,8,VALID,0,
2012-08-08, 00:50:04,VALID,917.879,VALID,0,VALID,95.3232,VALID,0,VALID,20.7381,VALID,8,VALID,0,
2012-08-08, 00:51:04,VALID,917.886,VALID,0,VALID,95.3308,VALID,0,VALID,20.7787,VALID,8,VALID,0,
2012-08-08, 00:52:04,VALID,917.886,VALID,0,VALID,95.3537,VALID,0.107441,VALID,20.7982,VALID,8,VALID,0,
2012-08-08, 00:53:04,VALID,917.866,VALID,0,VALID,95.3461,VALID,0,VALID,20.7966,VALID,8,VALID,0,
2012-08-08, 00:54:04,VALID,917.837,VALID,0,VALID,95.3079,VALID,0,VALID,20.8161,VALID,8,VALID,0,
2012-08-08, 00:55:04,VALID,917.861,VALID,0,VALID,95.2546,VALID,0,VALID,20.8551,VALID,8,VALID,0,
2012-08-08, 00:56:04,VALID,917.824,VALID,0,VALID,95.2317,VALID,0,VALID,20.8356,VALID,8,VALID,0,
2012-08-08, 00:57:04,VALID,917.83,VALID,0,VALID,95.2317,VALID,0,VALID,20.7966,VALID,8,VALID,0,
2012-08-08, 00:58:04,VALID,917.808,VALID,0,VALID,95.2317,VALID,0,VALID,20.7982,VALID,8,VALID,0,
2012-08-08, 00:59:04,VALID,917.764,VALID,0,VALID,95.247,VALID,0,VALID,20.7787,VALID,8,VALID,0,
2012-08-08, 01:00:04,VALID,917.74,VALID,0,VALID,95.2622,VALID,0,VALID,20.7787,VALID,8,VALID,0,
2012-08-08, 01:01:04,VALID,917.746,VALID,0,VALID,95.3003,VALID,0,VALID,20.7787,VALID,8,VALID,0,
2012-08-08, 01:02:04,VALID,917.742,VALID,0,VALID,95.3384,VALID,0,VALID,20.699,VALID,8,VALID,0,
2012-08-08, 01:03:04,VALID,917.753,VALID,0,VALID,95.3842,VALID,0,VALID,20.7787,VALID,8,VALID,0,
2012-08-08, 01:04:04,VALID,917.756,VALID,0,VALID,95.3994,VALID,0,VALID,20.7576,VALID,8,VALID,0,
2012-08-08, 01:05:04,VALID,917.728,VALID,0,VALID,95.3537,VALID,0,VALID,20.7576,VALID,8,VALID,0,
2012-08-08, 01:06:04,VALID,917.737,VALID,0,VALID,95.3994,VALID,0,VALID,20.7787,VALID,8,VALID,0,
2012-08-08, 01:07:04,VALID,917.718,VALID,0,VALID,95.4452,VALID,0,VALID,20.7982,VALID,9,VALID,0,
2012-08-08, 01:08:04,VALID,917.728,VALID,0,VALID,95.3613,VALID,0,VALID,20.8177,VALID,8,VALID,0,
2012-08-08, 01:09:04,VALID,917.716,VALID,0,VALID,95.4071,VALID,0,VALID,20.7771,VALID,8,VALID,0,
2012-08-08, 01:10:04,VALID,917.72,VALID,0,VALID,95.3766,VALID,0,VALID,20.7966,VALID,8,VALID,0,
2012-08-08, 01:11:04,VALID,917.737,VALID,0,VALID,95.4071,VALID,0,VALID,20.7966,VALID,8,VALID,0,
2012-08-08, 01:12:04,VALID,917.736,VALID,0,VALID,95.4071,VALID,0,VALID,20.8161,VALID,8,VALID,0,
2012-08-08, 01:13:04,VALID,917.742,VALID,0,VALID,95.4299,VALID,0,VALID,20.8161,VALID,8,VALID,0,
2012-08-08, 01:14:04,VALID,917.743,VALID,0,VALID,95.4604,VALID,0,VALID,20.8356,VALID,8,VALID,0,
2012-08-08, 01:15:04,VALID,917.722,VALID,0,VALID,95.4223,VALID,0,VALID,20.8356,VALID,8,VALID,0,
2012-08-08, 01:16:04,VALID,917.709,VALID,0,VALID,95.4071,VALID,0,VALID,20.8161,VALID,8,VALID,0,
2012-08-08, 01:17:04,VALID,917.709,VALID,0,VALID,95.4452,VALID,0,VALID,20.8372,VALID,8,VALID,0,
2012-08-08, 01:18:04,VALID,917.645,VALID,0,VALID,95.4833,VALID,0,VALID,20.8177,VALID,9,VALID,0,
2012-08-08, 01:19:05,VALID,917.619,VALID,0,VALID,95.4985,VALID,0,VALID,20.8161,VALID,8,VALID,0,
2012-08-08, 01:20:05,VALID,917.63,VALID,0,VALID,95.5214,VALID,0,VALID,20.8161,VALID,8,VALID,0,
2012-08-08, 01:21:05,VALID,917.608,VALID,0,VALID,95.5062,VALID,0,VALID,20.8372,VALID,8,VALID,0,
2012-08-08, 01:22:05,VALID,917.608,VALID,0,VALID,95.5062,VALID,0,VALID,20.8161,VALID,8,VALID,0,
2012-08-08, 01:23:05,VALID,917.616,VALID,0,VALID,95.5214,VALID,0,VALID,20.8161,VALID,8,VALID,0,
2012-08-08, 01:24:05,VALID,917.614,VALID,0,VALID,95.5595,VALID,0,VALID,20.8356,VALID,8,VALID,0,
2012-08-08, 01:25:05,VALID,917.593,VALID,0,VALID,95.59,VALID,0,VALID,20.8356,VALID,8,VALID,0,
2012-08-08, 01:26:05,VALID,917.595,VALID,0,VALID,95.5138,VALID,0,VALID,20.8356,VALID,8,VALID,0,
2012-08-08, 01:27:05,VALID,917.596,VALID,0,VALID,95.4833,VALID,0,VALID,20.8161,VALID,8,VALID,0,
2012-08-08, 01:28:05,VALID,917.614,VALID,0,VALID,95.4604,VALID,0,VALID,20.7966,VALID,8,VALID,0,
2012-08-08, 01:29:05,VALID,917.588,VALID,0,VALID,95.4452,VALID,0.107441,VALID,20.7755,VALID,8,VALID,0,
2012-08-08, 01:30:05,VALID,917.569,VALID,0,VALID,95.4223,VALID,0,VALID,20.7576,VALID,8,VALID,0,
2012-08-08, 01:31:05,VALID,917.55,VALID,0,VALID,95.468,VALID,0,VALID,20.717,VALID,8,VALID,0,
2012-08-08, 01:32:05,VALID,917.559,VALID,0,VALID,95.5671,VALID,0,VALID,20.7185,VALID,8,VALID,0,
2012-08-08, 01:33:05,VALID,917.56,VALID,0,VALID,95.6281,VALID,0.107441,VALID,20.7381,VALID,8,VALID,0,
2012-08-08, 01:34:05,VALID,917.534,VALID,0,VALID,95.6967,VALID,0,VALID,20.717,VALID,8,VALID,0,
2012-08-08, 01:35:05,VALID,917.558,VALID,0,VALID,95.7272,VALID,0.107441,VALID,20.756,VALID,8,VALID,0,
2012-08-08, 01:36:05,VALID,917.527,VALID,0,VALID,95.7196,VALID,0.107441,VALID,20.7966,VALID,8,VALID,0,
2012-08-08, 01:37:05,VALID,917.56,VALID,0,VALID,95.651,VALID,0.107441,VALID,20.756,VALID,8,VALID,0,
2012-08-08, 01:38:05,VALID,917.524,VALID,0,VALID,95.6434,VALID,0.107441,VALID,20.756,VALID,8,VALID,0,
2012-08-08, 01:39:05,VALID,917.526,VALID,0,VALID,95.6434,VALID,0,VALID,20.7755,VALID,8,VALID,0,
2012-08-08, 01:40:05,VALID,917.531,VALID,0,VALID,95.6586,VALID,0,VALID,20.7755,VALID,8,VALID,0,
2012-08-08, 01:41:05,VALID,917.533,VALID,0,VALID,95.6281,VALID,0,VALID,20.7966,VALID,8,VALID,0,
2012-08-08, 01:42:05,VALID,917.543,VALID,0,VALID,95.5671,VALID,0,VALID,20.7771,VALID,8,VALID,0,
2012-08-08, 01:43:05,VALID,917.539,VALID,0,VALID,95.5062,VALID,0,VALID,20.7381,VALID,8,VALID,0,
2012-08-08, 01:44:05,VALID,917.535,VALID,0,VALID,95.5062,VALID,0,VALID,20.8161,VALID,8,VALID,0,
2012-08-08, 01:45:05,VALID,917.527,VALID,0,VALID,95.4757,VALID,0,VALID,20.8356,VALID,8,VALID,0,
2012-08-08, 01:46:05,VALID,917.534,VALID,0,VALID,95.4147,VALID,0,VALID,20.8161,VALID,8,VALID,0,
2012-08-08, 01:47:05,VALID,917.48,VALID,0,VALID,95.3842,VALID,0,VALID,20.8372,VALID,8,VALID,0,
2012-08-08, 01:48:05,VALID,917.484,VALID,0,VALID,95.3461,VALID,0,VALID,20.8567,VALID,8,VALID,0,
2012-08-08, 01:49:05,VALID,917.481,VALID,0,VALID,95.3003,VALID,0,VALID,20.8762,VALID,8,VALID,0,
2012-08-08, 01:50:05,VALID,917.44,VALID,0,VALID,95.2546,VALID,0,VALID,20.8957,VALID,8,VALID,0,
2012-08-08, 01:51:05,VALID,917.443,VALID,0,VALID,95.1555,VALID,0,VALID,20.8762,VALID,8,VALID,0,
2012-08-08, 01:52:05,VALID,917.444,VALID,0,VALID,94.9878,VALID,0,VALID,20.8372,VALID,8,VALID,0,
2012-08-08, 01:53:05,VALID,917.439,VALID,0,VALID,94.9192,VALID,0,VALID,20.7982,VALID,8,VALID,0,
2012-08-08, 01:54:05,VALID,917.447,VALID,0,VALID,95.0106,VALID,0,VALID,20.7381,VALID,8,VALID,0,
2012-08-08, 01:55:05,VALID,917.413,VALID,0,VALID,95.125,VALID,0,VALID,20.7591,VALID,8,VALID,0,
2012-08-08, 01:56:05,VALID,917.408,VALID,0,VALID,95.2165,VALID,0,VALID,20.7576,VALID,8,VALID,0,
2012-08-08, 01:57:05,VALID,917.412,VALID,0,VALID,95.2698,VALID,0,VALID,20.717,VALID,8,VALID,0,
2012-08-08, 01:58:05,VALID,917.455,VALID,0,VALID,95.3461,VALID,0,VALID,20.7185,VALID,8,VALID,0,
2012-08-08, 01:59:05,VALID,917.478,VALID,0,VALID,95.4071,VALID,0,VALID,20.717,VALID,8,VALID,0,
2012-08-08, 02:00:05,VALID,917.472,VALID,0,VALID,95.5443,VALID,0,VALID,20.7365,VALID,8,VALID,0,
2012-08-08, 02:01:05,VALID,917.454,VALID,0,VALID,95.5824,VALID,0,VALID,20.7381,VALID,8,VALID,0,
2012-08-08, 02:02:05,VALID,917.492,VALID,0,VALID,95.5748,VALID,0,VALID,20.7381,VALID,8,VALID,0,
2012-08-08, 02:03:05,VALID,917.485,VALID,0,VALID,95.6205,VALID,0,VALID,20.7365,VALID,8,VALID,0,
2012-08-08, 02:04:05,VALID,917.45,VALID,0,VALID,95.651,VALID,0,VALID,20.7771,VALID,8,VALID,0,
2012-08-08, 02:05:05,VALID,917.454,VALID,0,VALID,95.7044,VALID,0,VALID,20.7966,VALID,8,VALID,0,
2012-08-08, 02:06:05,VALID,917.424,VALID,0,VALID,95.651,VALID,0.107441,VALID,20.7755,VALID,8,VALID,0,
2012-08-08, 02:07:05,VALID,917.386,VALID,0,VALID,95.6815,VALID,0.107441,VALID,20.7755,VALID,8,VALID,0,
2012-08-08, 02:08:05,VALID,917.401,VALID,0,VALID,95.6662,VALID,0,VALID,20.7755,VALID,8,VALID,0,
2012-08-08, 02:09:05,VALID,917.368,VALID,0,VALID,95.6967,VALID,0.107441,VALID,20.7755,VALID,8,VALID,0,
2012-08-08, 02:10:05,VALID,917.401,VALID,0,VALID,95.6815,VALID,0,VALID,20.7755,VALID,8,VALID,0,
2012-08-08, 02:11:05,VALID,917.358,VALID,0,VALID,95.712,VALID,0,VALID,20.7982,VALID,8,VALID,0,
2012-08-08, 02:12:05,VALID,917.381,VALID,0,VALID,95.7349,VALID,0,VALID,20.8177,VALID,8,VALID,0,
2012-08-08, 02:13:05,VALID,917.405,VALID,0,VALID,95.7425,VALID,0,VALID,20.8161,VALID,8,VALID,0,
2012-08-08, 02:14:05,VALID,917.376,VALID,0,VALID,95.7349,VALID,0,VALID,20.8567,VALID,8,VALID,0,
2012-08-08, 02:15:05,VALID,917.378,VALID,0,VALID,95.6815,VALID,0,VALID,20.8551,VALID,8,VALID,0,
2012-08-08, 02:16:05,VALID,917.386,VALID,0,VALID,95.6891,VALID,0,VALID,20.8551,VALID,8,VALID,0,
2012-08-08, 02:17:05,VALID,917.379,VALID,0,VALID,95.6434,VALID,0,VALID,20.8957,VALID,8,VALID,0,
2012-08-08, 02:18:05,VALID,917.375,VALID,0,VALID,95.5519,VALID,0,VALID,20.8567,VALID,8,VALID,0,
2012-08-08, 02:19:05,VALID,917.365,VALID,0,VALID,95.5367,VALID,0,VALID,20.8356,VALID,8,VALID,0,
2012-08-08, 02:20:05,VALID,917.37,VALID,0,VALID,95.59,VALID,0,VALID,20.8372,VALID,8,VALID,0,
2012-08-08, 02:21:05,VALID,917.344,VALID,0,VALID,95.5976,VALID,0,VALID,20.8356,VALID,8,VALID,0,
2012-08-08, 02:22:05,VALID,917.321,VALID,0,VALID,95.6053,VALID,0,VALID,20.8551,VALID,8,VALID,0,
2012-08-08, 02:23:05,VALID,917.326,VALID,0,VALID,95.5595,VALID,0,VALID,20.8778,VALID,8,VALID,0,
2012-08-08, 02:24:05,VALID,917.288,VALID,0,VALID,95.5214,VALID,0,VALID,20.8567,VALID,8,VALID,0,
2012-08-08, 02:25:05,VALID,917.267,VALID,0,VALID,95.5214,VALID,0,VALID,20.8356,VALID,8,VALID,0,
2012-08-08, 02:26:05,VALID,917.247,VALID,0,VALID,95.468,VALID,0,VALID,20.834,VALID,8,VALID,0,
2012-08-08, 02:27:05,VALID,917.23,VALID,0,VALID,95.4299,VALID,0,VALID,20.8356,VALID,8,VALID,0,
2012-08-08, 02:28:05,VALID,917.186,VALID,0,VALID,95.3613,VALID,0.107441,VALID,20.8161,VALID,8,VALID,0,
2012-08-08, 02:29:05,VALID,917.181,VALID,0,VALID,95.3689,VALID,0,VALID,20.7966,VALID,8,VALID,0,
2012-08-08, 02:30:05,VALID,917.148,VALID,0,VALID,95.3384,VALID,0,VALID,20.7966,VALID,8,VALID,0,
2012-08-08, 02:31:05,VALID,917.13,VALID,0,VALID,95.3613,VALID,0.107441,VALID,20.7982,VALID,8,VALID,0,
2012-08-08, 02:32:05,VALID,917.103,VALID,0,VALID,95.3689,VALID,0,VALID,20.7576,VALID,8,VALID,0,
2012-08-08, 02:33:05,VALID,917.096,VALID,0,VALID,95.3537,VALID,0.107441,VALID,20.7365,VALID,9,VALID,0,
2012-08-08, 02:34:05,VALID,917.118,VALID,0,VALID,95.3766,VALID,0.107441,VALID,20.7381,VALID,9,VALID,0,
2012-08-08, 02:35:05,VALID,917.124,VALID,0,VALID,95.4147,VALID,0.107441,VALID,20.6959,VALID,9,VALID,0,
2012-08-08, 02:36:05,VALID,917.13,VALID,0,VALID,95.3994,VALID,0,VALID,20.7185,VALID,9,VALID,0,
2012-08-08, 02:37:05,VALID,917.103,VALID,0,VALID,95.4452,VALID,0.107441,VALID,20.7396,VALID,9,VALID,0,
2012-08-08, 02:38:05,VALID,917.073,VALID,0,VALID,95.4223,VALID,0,VALID,20.699,VALID,9,VALID,0,
2012-08-08, 02:39:05,VALID,917.064,VALID,0,VALID,95.4299,VALID,0.107441,VALID,20.678,VALID,9,VALID,0,
2012-08-08, 02:40:05,VALID,917.089,VALID,0,VALID,95.4299,VALID,0,VALID,20.6585,VALID,9,VALID,0,
2012-08-08, 02:41:05,VALID,917.089,VALID,0,VALID,95.4375,VALID,0,VALID,20.6585,VALID,9,VALID,0,
2012-08-08, 02:42:05,VALID,917.092,VALID,0,VALID,95.4757,VALID,0.107441,VALID,20.639,VALID,9,VALID,0,
2012-08-08, 02:43:05,VALID,917.084,VALID,0,VALID,95.4757,VALID,0.107441,VALID,20.66,VALID,9,VALID,0,
2012-08-08, 02:44:05,VALID,917.092,VALID,0,VALID,95.4985,VALID,0,VALID,20.6405,VALID,9,VALID,0,
2012-08-08, 02:45:05,VALID,917.064,VALID,0,VALID,95.5138,VALID,0,VALID,20.6405,VALID,9,VALID,0,
2012-08-08, 02:46:05,VALID,917.081,VALID,0,VALID,95.5138,VALID,0.107441,VALID,20.621,VALID,9,VALID,0,
2012-08-08, 02:47:05,VALID,917.07,VALID,0,VALID,95.4985,VALID,0,VALID,20.6015,VALID,9,VALID,0,
2012-08-08, 02:48:05,VALID,917.085,VALID,0,VALID,95.5443,VALID,0.107441,VALID,20.6241,VALID,9,VALID,0,
2012-08-08, 02:49:05,VALID,917.071,VALID,0,VALID,95.5443,VALID,0.107441,VALID,20.6031,VALID,9,VALID,0,
2012-08-08, 02:50:05,VALID,917.049,VALID,0,VALID,95.5748,VALID,0.107441,VALID,20.5609,VALID,9,VALID,0,
2012-08-08, 02:51:05,VALID,917.046,VALID,0,VALID,95.5824,VALID,0.107441,VALID,20.582,VALID,9,VALID,0,
2012-08-08, 02:52:05,VALID,917.023,VALID,0,VALID,95.5824,VALID,0.107441,VALID,20.582,VALID,9,VALID,0,
2012-08-08, 02:53:05,VALID,917.011,VALID,0,VALID,95.59,VALID,0,VALID,20.5414,VALID,9,VALID,0,
2012-08-08, 02:54:05,VALID,917.044,VALID,0,VALID,95.5824,VALID,0.107441,VALID,20.582,VALID,8,VALID,0,
2012-08-08, 02:55:05,VALID,917.031,VALID,0,VALID,95.59,VALID,0,VALID,20.5414,VALID,8,VALID,0,
2012-08-08, 02:56:05,VALID,917.016,VALID,0,VALID,95.5824,VALID,0,VALID,20.5445,VALID,9,VALID,0,
2012-08-08, 02:57:05,VALID,917.026,VALID,0,VALID,95.5976,VALID,0,VALID,20.525,VALID,8,VALID,0,
2012-08-08, 02:58:05,VALID,917.038,VALID,0,VALID,95.6053,VALID,0,VALID,20.5445,VALID,9,VALID,0,
2012-08-08, 02:59:05,VALID,917.013,VALID,0,VALID,95.5976,VALID,0,VALID,20.5461,VALID,9,VALID,0,
2012-08-08, 03:00:05,VALID,917.012,VALID,0,VALID,95.6053,VALID,0,VALID,20.525,VALID,9,VALID,0,
2012-08-08, 03:01:05,VALID,917.052,VALID,0,VALID,95.6205,VALID,0,VALID,20.525,VALID,9,VALID,0,
2012-08-08, 03:02:05,VALID,917.007,VALID,0,VALID,95.6205,VALID,0,VALID,20.5445,VALID,9,VALID,0,
2012-08-08, 03:03:05,VALID,917.037,VALID,0,VALID,95.6129,VALID,0,VALID,20.525,VALID,9,VALID,0,
2012-08-08, 03:04:05,VALID,917.008,VALID,0,VALID,95.6205,VALID,0,VALID,20.504,VALID,9,VALID,0,
2012-08-08, 03:05:05,VALID,917.001,VALID,0,VALID,95.6053,VALID,0,VALID,20.525,VALID,9,VALID,0,
2012-08-08, 03:06:05,VALID,917.016,VALID,0,VALID,95.6129,VALID,0,VALID,20.5445,VALID,9,VALID,0,
2012-08-08, 03:07:05,VALID,917.011,VALID,0,VALID,95.6129,VALID,0,VALID,20.5656,VALID,9,VALID,0,
2012-08-08, 03:08:05,VALID,917.009,VALID,0,VALID,95.6281,VALID,0,VALID,20.5445,VALID,9,VALID,0,
2012-08-08, 03:09:05,VALID,917.027,VALID,0,VALID,95.6281,VALID,0,VALID,20.5445,VALID,9,VALID,0,
2012-08-08, 03:10:05,VALID,917.001,VALID,0,VALID,95.6053,VALID,0,VALID,20.525,VALID,9,VALID,0,
2012-08-08, 03:11:05,VALID,917.008,VALID,0,VALID,95.6281,VALID,0,VALID,20.525,VALID,261,VALID,0,
2012-08-08, 03:12:05,VALID,917.04,VALID,0,VALID,95.6281,VALID,0,VALID,20.5055,VALID,261,VALID,0,
2012-08-08, 03:13:05,VALID,917.008,VALID,0,VALID,95.651,VALID,0,VALID,20.525,VALID,261,VALID,0,
2012-08-08, 03:14:05,VALID,917.015,VALID,0,VALID,95.6739,VALID,0,VALID,20.5055,VALID,261,VALID,0,
2012-08-08, 03:15:05,VALID,917.015,VALID,0,VALID,95.6281,VALID,0,VALID,20.5055,VALID,261,VALID,0,
2012-08-08, 03:16:05,VALID,917.021,VALID,0,VALID,95.6434,VALID,0,VALID,20.4665,VALID,261,VALID,0,
2012-08-08, 03:17:05,VALID,917.045,VALID,0,VALID,95.6891,VALID,0,VALID,20.4665,VALID,261,VALID,0,
2012-08-08, 03:18:05,VALID,917.066,VALID,0,VALID,95.7044,VALID,0,VALID,20.4454,VALID,261,VALID,0,
2012-08-08, 03:19:05,VALID,917.073,VALID,0,VALID,95.7044,VALID,0,VALID,20.4454,VALID,261,VALID,0,
2012-08-08, 03:20:05,VALID,917.11,VALID,0,VALID,95.7349,VALID,0,VALID,20.4665,VALID,261,VALID,0,
2012-08-08, 03:21:05,VALID,917.059,VALID,0,VALID,95.712,VALID,0,VALID,20.4665,VALID,261,VALID,0,
2012-08-08, 03:22:05,VALID,917.103,VALID,0,VALID,95.6891,VALID,0,VALID,20.447,VALID,261,VALID,0,
2012-08-08, 03:23:05,VALID,917.095,VALID,0,VALID,95.6967,VALID,0,VALID,20.4275,VALID,261,VALID,0,
2012-08-08, 03:24:05,VALID,917.088,VALID,0,VALID,95.6967,VALID,0,VALID,20.4275,VALID,261,VALID,0,
2012-08-08, 03:25:05,VALID,917.075,VALID,0,VALID,95.7196,VALID,0,VALID,20.4064,VALID,261,VALID,0,
2012-08-08, 03:26:05,VALID,917.049,VALID,0,VALID,95.773,VALID,0,VALID,20.4064,VALID,261,VALID,0,
2012-08-08, 03:27:05,VALID,917.043,VALID,0,VALID,95.7654,VALID,0,VALID,20.4064,VALID,261,VALID,0,
2012-08-08, 03:28:05,VALID,917.046,VALID,0,VALID,95.7425,VALID,0,VALID,20.4064,VALID,261,VALID,0,
2012-08-08, 03:29:05,VALID,917.038,VALID,0,VALID,95.7196,VALID,0,VALID,20.408,VALID,261,VALID,0,
2012-08-08, 03:30:05,VALID,917.031,VALID,0,VALID,95.7349,VALID,0,VALID,20.4275,VALID,261,VALID,0,
2012-08-08, 03:31:05,VALID,917.041,VALID,0,VALID,95.7425,VALID,0,VALID,20.447,VALID,261,VALID,0,
2012-08-08, 03:32:05,VALID,917.002,VALID,0,VALID,95.7349,VALID,0,VALID,20.4665,VALID,261,VALID,0,
2012-08-08, 03:33:05,VALID,916.995,VALID,0,VALID,95.7425,VALID,0,VALID,20.4665,VALID,261,VALID,0,
2012-08-08, 03:34:05,VALID,917.035,VALID,0,VALID,95.7196,VALID,0,VALID,20.4665,VALID,261,VALID,0,
2012-08-08, 03:35:05,VALID,917.031,VALID,0,VALID,95.712,VALID,0,VALID,20.465,VALID,261,VALID,0,
2012-08-08, 03:36:05,VALID,917.054,VALID,0,VALID,95.7349,VALID,0,VALID,20.5055,VALID,261,VALID,0,
2012-08-08, 03:37:05,VALID,917.028,VALID,0,VALID,95.6586,VALID,0,VALID,20.5055,VALID,261,VALID,0,
2012-08-08, 03:38:05,VALID,917.066,VALID,0,VALID,95.5976,VALID,0,VALID,20.5055,VALID,261,VALID,0,
2012-08-08, 03:39:05,VALID,917.078,VALID,0,VALID,95.5367,VALID,0,VALID,20.486,VALID,261,VALID,0,
2012-08-08, 03:40:05,VALID,917.102,VALID,0,VALID,95.5138,VALID,0,VALID,20.486,VALID,261,VALID,0,
2012-08-08, 03:41:05,VALID,917.132,VALID,0,VALID,95.529,VALID,0,VALID,20.486,VALID,261,VALID,0,
2012-08-08, 03:42:05,VALID,917.117,VALID,0,VALID,95.4833,VALID,0,VALID,20.4454,VALID,261,VALID,0,
2012-08-08, 03:43:05,VALID,917.14,VALID,0,VALID,95.5138,VALID,0,VALID,20.4665,VALID,261,VALID,0,
2012-08-08, 03:44:05,VALID,917.14,VALID,0,VALID,95.5138,VALID,0,VALID,20.447,VALID,261,VALID,0,
2012-08-08, 03:45:05,VALID,917.105,VALID,0,VALID,95.5062,VALID,0,VALID,20.4275,VALID,261,VALID,0,
2012-08-08, 03:46:05,VALID,917.11,VALID,0,VALID,95.4909,VALID,0,VALID,20.408,VALID,261,VALID,0,
2012-08-08, 03:47:05,VALID,917.105,VALID,0,VALID,95.5671,VALID,0,VALID,20.408,VALID,261,VALID,0,
2012-08-08, 03:48:05,VALID,917.119,VALID,0,VALID,95.5748,VALID,0,VALID,20.408,VALID,261,VALID,0,
2012-08-08, 03:49:05,VALID,917.13,VALID,0,VALID,95.5748,VALID,0,VALID,20.408,VALID,261,VALID,0,
2012-08-08, 03:50:05,VALID,917.143,VALID,0,VALID,95.6129,VALID,0,VALID,20.408,VALID,261,VALID,0,
2012-08-08, 03:51:05,VALID,917.171,VALID,0,VALID,95.6281,VALID,0,VALID,20.3885,VALID,261,VALID,0,
2012-08-08, 03:52:05,VALID,917.163,VALID,0,VALID,95.6586,VALID,0,VALID,20.369,VALID,261,VALID,0,
2012-08-08, 03:53:05,VALID,917.195,VALID,0,VALID,95.6434,VALID,0,VALID,20.33,VALID,261,VALID,0,
2012-08-08, 03:54:05,VALID,917.199,VALID,0,VALID,95.6434,VALID,0,VALID,20.33,VALID,261,VALID,0,
2012-08-08, 03:55:05,VALID,917.203,VALID,0,VALID,95.6815,VALID,0,VALID,20.2894,VALID,261,VALID,0,
2012-08-08, 03:56:05,VALID,917.184,VALID,0,VALID,95.7501,VALID,0,VALID,20.2909,VALID,261,VALID,0,
2012-08-08, 03:57:05,VALID,917.166,VALID,0,VALID,95.8263,VALID,0,VALID,20.2714,VALID,261,VALID,0,
2012-08-08, 03:58:05,VALID,917.181,VALID,0,VALID,95.8873,VALID,0,VALID,20.2909,VALID,261,VALID,0,
2012-08-08, 03:59:05,VALID,917.158,VALID,0,VALID,95.9178,VALID,0,VALID,20.2909,VALID,261,VALID,0,
2012-08-08, 04:00:05,VALID,917.15,VALID,0,VALID,95.9483,VALID,0,VALID,20.2909,VALID,261,VALID,0,
2012-08-08, 04:01:05,VALID,917.141,VALID,0,VALID,96.0017,VALID,0,VALID,20.3105,VALID,261,VALID,0,
2012-08-08, 04:02:05,VALID,917.108,VALID,0,VALID,96.0017,VALID,0,VALID,20.2909,VALID,261,VALID,0,